(7994) Bethellen = 1977 AN = 1983 CQ2 = 1951 EB = 1994 EJ2

Discovered at Anderson Mesa on 1983-02-15 by E. Bowell.
(7994) Bethellen = 1983 CQ2

Named in honor of Beth Ellen Clark (b. 1964) on the occasion of the 1999 "Asteroids, Comets, Meteors meeting" at Cornell University. Clark served as the lead organizer of that meeting with dedication and an admirable combination of firm organization and style. Her Ph.D. thesis was on the mixing model analysis of spectra of minor planets to investigate space-weathering effects in relating these spectra to laboratory spectra of meteorites. She has been an associate member of the NEAR science team, and she has recently been appointed team leader for the near-infrared spectrometer to be flown aboard the MUSES-C spacecraft. Citation provided by A. W. Harris. [Ref: Minor Planet Circ. 35489]

Orbit

Orbit type: Main Belt

Note: WebGL enabled browser required.

epoch2024-03-31.0
epoch JD2460400.5
perihelion date2020-07-26.25071
perihelion JD2459056.75071
argument of perihelion (°)282.26706
ascending node (°)231.70964
inclination (°)0.04634
eccentricity0.1052554
perihelion distance (AU)2.7389995
Tisserand w.r.t. Jupiter3.2
ΔV w.r.t. Earth (km/sec)10.3
semimajor axis (AU)3.0612081
mean anomaly (°)247.27648
mean daily motion (°/day)0.18401980
aphelion distance (AU)3.383
period (years)5.36
P-vector [x]-0.89861544
P-vector [y]0.40284720
P-vector [z]0.17379419
Q-vector [x]-0.43873670
Q-vector [y]-0.82453210
Q-vector [z]-0.35729111
absolute magnitude12.9
phase slope0.15
uncertainty0
referenceMPEC 2024-E140
observations used3812
oppositions29
arc length (days)26602
first opposition used1951
last opposition used2024
residual rms (arc-secs)0.57
perturbers coarse indicatorM-v
perturbers precise indicator003Ek
first observation date used1951-03-06.0
last observation date used2024-01-05.0
computer nameMPCLINUX
JD of orbit computation2456937.430166
perihelion JD uncertainty (days)9.7366E-05
argument of perihelion uncertainty (°)4.9688E-03
ascending node uncertainty (°)4.9687E-03
inclination uncertainty (°)3.6010E-06
eccentricity uncertainty 3.5246E-08
perihelion distance uncertainty (AU)1.0988E-07
Minimum Orbit Intersection Distances (in AU)
for orbit epoch: 2460400.5, reference: E2024-EE0
Mercury2.36996
Venus2.02187
Earth1.74955
Mars1.07548
Jupiter1.60459
Saturn6.03751
Uranus15.6928
Neptune26.5403

Observations

3879 total observations over interval: 1951 03 06.90883 – 2024 01 05.279901
These data are available for download (format description).

Date (UT) J2000 RA J2000 Dec Magn Location Ref
1951 03 06.90883 11 05 01.84 +05 49 48.9   024 – Heidelberg-Konigstuhl HD 17
1951 03 06.90883 11 05.1 +05 50 14.5   024 – Heidelberg-Konigstuhl MPC 529
1951 03 13.01090 11 00 18.72 +06 19 13.4   024 – Heidelberg-Konigstuhl HD 17
1977 01 13.82264 05 41 13.12 +23 21 04.1 17.5   095 – Crimea-Nauchnyi MPC 4584
1983 02 14.17322 10 31 06.17 +09 15 05.1 17.2   809 – European Southern Observatory, La Silla MPC 8130
1983 02 14.18015 10 31 05.86 +09 15 06.3   809 – European Southern Observatory, La Silla MPC 8130
1983 02 14.18707 10 31 05.56 +09 15 07.5   809 – European Southern Observatory, La Silla MPC 8130
1983 02 15.32431 10 30 13.65 +09 20 09.7 17.0   688 – Lowell Observatory, Anderson Mesa Station MPC 7824
1983 02 15.35486 10 30 12.11 +09 20 16.8   688 – Lowell Observatory, Anderson Mesa Station MPC 7824
1983 02 18.14359 10 28 02.44 +09 32 57.0   809 – European Southern Observatory, La Silla MPC 8130
1983 02 18.15052 10 28 02.13 +09 32 58.8   809 – European Southern Observatory, La Silla MPC 8130
1983 02 18.15744 10 28 01.82 +09 33 00.6   809 – European Southern Observatory, La Silla MPC 8130
1983 02 20.23578 10 26 23.28 +09 42 32.1   809 – European Southern Observatory, La Silla MPC 8130
1983 02 20.24271 10 26 22.93 +09 42 34.1   809 – European Southern Observatory, La Silla MPC 8130
1983 02 20.24963 10 26 22.62 +09 42 36.1   809 – European Southern Observatory, La Silla MPC 8130
1989 05 07.29948 14 20 09.58 -14 00 03.5 17.8   675 – Palomar Mountain MPC 29748
1989 05 07.33403 14 20 07.89 -13 59 55.7   675 – Palomar Mountain MPC 29748
1991 09 17.45938 00 30 46.24 +03 22 13.4 17.8   675 – Palomar Mountain MPC 29748
1991 10 05.24325 00 17 51.06 +01 58 47.1 18.0 V 691 – Steward Observatory, Kitt Peak-Spacewatch MPC 29463
1991 10 05.27186 00 17 49.81 +01 58 38.8   691 – Steward Observatory, Kitt Peak-Spacewatch MPC 29463
1991 10 05.29239 00 17 48.87 +01 58 30.7   691 – Steward Observatory, Kitt Peak-Spacewatch MPC 29463
1992 12 17.56146 05 19 19.09 +23 05 18.9 17   399 – Kushiro MPS 32611
1992 12 17.57610 05 19 18.24 +23 05 17.3   399 – Kushiro MPS 32611
1994 03 11.57095 12 21 40.32 -02 24 04.5 16.8   399 – Kushiro MPC 23280
1994 03 11.58542 12 21 39.71 -02 24 02.0   399 – Kushiro MPC 23280
1994 03 12.55625 12 20 58.96 -02 19 37.5 16.5   399 – Kushiro MPC 23280
1994 03 12.57118 12 20 58.36 -02 19 32.4   399 – Kushiro MPC 23280
1994 03 14.41024 12 19 39.51 -02 11 02.3 16.8   675 – Palomar Mountain MPC 29400
1994 03 14.46406 12 19 36.98 -02 10 47.5   675 – Palomar Mountain MPC 29400
1994 04 03.27242 12 04 46.74 -00 34 19.6 16.8   675 – Palomar Mountain MPC 29400
1994 04 03.31215 12 04 44.92 -00 34 08.3   675 – Palomar Mountain MPC 29400
1994 04 04.27378 12 04 04.01 -00 29 39.7 17.2   675 – Palomar Mountain MPC 29748
1994 04 04.31667 12 04 02.18 -00 29 29.9   675 – Palomar Mountain MPC 29748
1996 09 10.44568 22 52 34.78 -07 06 13.3 18.2 V 566 – Haleakala-NEAT/GEODSS MPC 29383
1996 09 10.45411 22 52 34.40 -07 06 15.2 18.5 V 566 – Haleakala-NEAT/GEODSS MPC 29383
1996 09 10.46250 22 52 34.04 -07 06 18.0 18.3 V 566 – Haleakala-NEAT/GEODSS MPC 29383
1997 10 15.74942 03 40 26.97 +19 35 26.5 17.8   327 – Peking Observatory, Xinglong Station MPS 88
1997 10 15.76478 03 40 26.49 +19 35 26.0   327 – Peking Observatory, Xinglong Station MPS 88
1997 10 15.77977 03 40 26.02 +19 35 23.8   327 – Peking Observatory, Xinglong Station MPS 88
1997 10 15.79499 03 40 25.55 +19 35 22.1   327 – Peking Observatory, Xinglong Station MPS 88
1997 10 25.29200 03 34 49.15 +19 16 25.0 17.0 R 684 – Prescott MPS 88
1997 10 25.32665 03 34 47.69 +19 16 20.3   684 – Prescott MPS 88
1997 10 26.31304 03 34 07.10 +19 14 00.2 17.4 R 684 – Prescott MPS 88
1997 10 26.32874 03 34 06.45 +19 13 58.2   684 – Prescott MPS 88
1997 10 26.33403 03 34 06.21 +19 13 57.5   684 – Prescott MPS 88
1997 10 27.40210 03 33 21.089 +19 11 21.61 16.47 J G91 – Whipple Observatory, Mt. Hopkins--2MASS MPS 80568
1997 10 29.61060 03 31 44.62 +19 05 46.1 17.5 V 566 – Haleakala-NEAT/GEODSS MPS 88
1997 10 29.62087 03 31 44.15 +19 05 44.4 17.5 V 566 – Haleakala-NEAT/GEODSS MPS 88
1997 10 29.63177 03 31 43.65 +19 05 42.7 17.5 V 566 – Haleakala-NEAT/GEODSS MPS 88
1997 10 30.20856 03 31 18.24 +19 04 11.0 16.8 R 688 – Lowell Observatory, Anderson Mesa Station MPS 263
1997 10 30.22568 03 31 17.45 +19 04 08.2   688 – Lowell Observatory, Anderson Mesa Station MPS 263
1997 10 31.25816 03 30 30.49 +19 01 22.4 17.0 R 688 – Lowell Observatory, Anderson Mesa Station MPS 263
1997 10 31.27273 03 30 29.78 +19 01 20.0   688 – Lowell Observatory, Anderson Mesa Station MPS 263
1997 11 06.61225 03 25 26.21 +18 43 06.7 17.5 V 369 – Chichibu MPS 88
1997 11 06.62511 03 25 25.54 +18 43 04.7   369 – Chichibu MPS 88
1997 11 06.63797 03 25 24.88 +18 43 02.4   369 – Chichibu MPS 88
1997 11 07.64096 03 24 34.94 +18 39 59.2 17.0 V 369 – Chichibu MPS 88
1997 11 07.65382 03 24 34.27 +18 39 56.8   369 – Chichibu MPS 88
1997 11 07.66667 03 24 33.63 +18 39 54.1   369 – Chichibu MPS 88
1997 11 29.13145 03 06 44.57 +17 30 51.7   704 – Lincoln Laboratory ETS, New Mexico MPS 385
1997 11 29.18901 03 06 41.79 +17 30 40.3   704 – Lincoln Laboratory ETS, New Mexico MPS 385
1997 11 29.20771 03 06 41.00 +17 30 36.8   704 – Lincoln Laboratory ETS, New Mexico MPS 385
1997 11 29.22736 03 06 40.11 +17 30 32.1 17.3   704 – Lincoln Laboratory ETS, New Mexico MPS 385
1997 12 04.21274 03 03 03.53 +17 15 43.4 16.9   704 – Lincoln Laboratory ETS, New Mexico MPS 107676
1997 12 04.24068 03 03 02.38 +17 15 38.7 16.5   704 – Lincoln Laboratory ETS, New Mexico MPS 107676
1997 12 04.25721 03 03 01.72 +17 15 35.8 17.4   704 – Lincoln Laboratory ETS, New Mexico MPS 107676
1997 12 04.27381 03 03 00.78 +17 15 33.3 16.9   704 – Lincoln Laboratory ETS, New Mexico MPS 107676
1997 12 04.29035 03 03 00.17 +17 15 29.1 16.9   704 – Lincoln Laboratory ETS, New Mexico MPS 107676
1998 11 16.48160 09 54 57.64 +12 38 15.7 18.2 R 699 – Lowell Observatory-LONEOS MPS 4400
1998 11 16.51128 09 54 59.26 +12 38 05.6   699 – Lowell Observatory-LONEOS MPS 4400
1998 11 16.53231 09 55 00.41 +12 37 59.8   699 – Lowell Observatory-LONEOS MPS 4400
1998 11 23.46331 10 00 56.06 +12 06 11.8 17.8 R 699 – Lowell Observatory-LONEOS MPS 50641
1998 11 23.48299 10 00 56.99 +12 06 06.2   699 – Lowell Observatory-LONEOS MPS 50641
1998 11 23.50411 10 00 58.01 +12 06 01.2   699 – Lowell Observatory-LONEOS MPS 50641
1998 11 25.41958 10 02 28.12 +11 57 51.6 18.5   704 – Lincoln Laboratory ETS, New Mexico MPS 3281
1998 11 25.43018 10 02 28.44 +11 57 48.6 18.5   704 – Lincoln Laboratory ETS, New Mexico MPS 3281
1998 11 25.44074 10 02 29.08 +11 57 47.0 18.5   704 – Lincoln Laboratory ETS, New Mexico MPS 3281
1998 11 25.45129 10 02 29.34 +11 57 42.7 18.5   704 – Lincoln Laboratory ETS, New Mexico MPS 3281
1999 01 22.40328 10 10 56.10 +11 10 07.7 17.3 R 699 – Lowell Observatory-LONEOS MPS 4075
1999 01 22.42882 10 10 55.29 +11 10 11.3   699 – Lowell Observatory-LONEOS MPS 4075
1999 01 22.45431 10 10 54.41 +11 10 15.9   699 – Lowell Observatory-LONEOS MPS 4075
1999 02 07.21392 10 00 19.87 +12 07 59.6 16.4 V 691 – Steward Observatory, Kitt Peak-Spacewatch MPS 4075
1999 02 07.23534 10 00 18.83 +12 08 05.2 16.4 V 691 – Steward Observatory, Kitt Peak-Spacewatch MPS 4075
1999 02 07.26023 10 00 17.63 +12 08 11.4 16.4 V 691 – Steward Observatory, Kitt Peak-Spacewatch MPS 4075
1999 02 10.30911 09 57 52.79 +12 21 08.0 18.9   704 – Lincoln Laboratory ETS, New Mexico MPS 4075
